Retour au catalogue

FENGYUN 1C DEB

ActifSSO
NORAD 30805·DEBRIS·🇨🇳 China

Lancé May 10, 1999 depuis Taiyuan Satellite Launch Center

Loading…

Prochains Passages (prochaines 24 heures)

TLE

FraisSource: Space-Track

Époque: Sep 14, 2026, 21:56 UTC

1 30805U 99025AUP 26257.91390632  .00000404  00000-0  27951-3 0  9991
2 30805  98.7966 296.7366 0071447 232.8632 303.0039 14.03427119998333

Suivez FENGYUN 1C DEB en temps réel avec AllMySat

Download on the App Store